STARLINK-11404, 62019

Orbit data source: Space-Track

STARLINK-11404, 62019 is a payload satellite owned by SpaceX/Seattle (US) in LEO that was launched on Mon, 18 Nov 2024 UTC via an FALCON 9 launch vehicle from the Air Force Western Test Range (AFWTR). Payload-class satellites include a variety of spacecraft equipped with specific instruments for various scientific and technological missions. These include communications satellites like Starlink; space stations such as the ISS; scientific satellites like the Hubble; Earth observation satellites from companies like Planet Labs, Umbra, and HawkEye 360; GPS; miniature CubeSats for education and research; and military/defense satellites.

Loading next visibility...
Identifier
62019, 2024-213M
Orbit
LEO
Country
Flag of USUS
Related business
Manufacturer
SpaceX/Seattle
Mission
Operational Commercial Communications
Bus & Motor
STARLINK V2MD, Unknown motor
Mass
960 kg wet, ~910 kg dry
Launch date (UTC)
2024-11-18 (2 years ago)
Launch vehicle
FALCON 9
Launch site
Air Force Western Test Range (AFWTR)
Object type
Payload
Rocket body
Debris
Shape & HBR
Box + 2 Pan, 18.1 m
Radar Cross Section
36.964 m², Large (>1 m²)

Expand to show TLE details & history
Last TLE update: 7 hours ago

TLE from 7 hours ago
0 STARLINK-11404
1 62019U 24213M   26227.62792515  .00091313  00000-0  75067-3 0  9991
2 62019  53.1568 338.0923 0000953  76.6883 283.4241 15.69697624 99873
Epoch: 2026-08-15T15:04Z
TLE epoch observation values (Epoch: 2026-08-15T15:04:12.732Z)
Latitude
-0.00006°
Longitude
148.00313°
Altitude
360.528 km
Speed
7.694 km/s
True Right ascension
22h 32m 22s
True Declination
0° 00' 00"
Sunlit
Object was in full shadow at epoch
Visualization orbit readout
Latitude
Unknown
Longitude
Unknown
Altitude
Unknown
Speed
Unknown
Apparent Right ascension
Unknown
Apparent Declination
Unknown
Sunlit
N/A
Visualization observer readout
Local Sidereal Time
12:24:14
Azimuth
Unknown
Elevation
Unknown
Doppler factor
Unknown
Orbital elements
Apogee altitude
360.666 km
Perigee altitude
359.381 km
Semi-major axis
6,738.16 km
Eccentricity
0.0001
Inclination
53.1568°
RAAN
338.0923°
Arg. of periapsis
76.6883°
True anomaly
283.41348°
Mean anomaly
283.4241°
Eccentric anomaly
283.41879°
Mean motion
3.92402 °/min
Orbital period
91.74 mins
BSTAR
0.00075067
Loading maneuver chart data...
Computing Atmospheric mass density...
Loading historical data...
Loading historical data...
Loading historical data...
Loading historical data...
Loading historical data...
Loading historical data...
Loading historical data...

Documentation

Showing up to 5 results
|